sat.trackr.live / text

‹ back to catalog

STARLINK-2163

NORAD 47749 · 2021-017AD

PAYLOAD ACTIVE UNKNOWN

§ Identity

Operator
Country
US
Launch date
2021-03-04
Launch site
AFETR
Launch vehicle
Mass (kg)
RCS (m²)

Purposes: comms

External: N2YO · Heavens-Above · Gunter

§ Orbital elements

Epoch: 2026-05-25T06:00:02.000160Z

Period
92.10 min
Inclination
53.1533°
Eccentricity
0.0001328
Mean motion
15.63582278 rev/d
Perigee alt
376.4 km
Apogee alt
378.2 km
Semi-major
6,755.5 km
B*
3.4927e-3
RAAN
188.4609°
Arg perigee
77.6425°
Mean anomaly
231.1702°
Rev number
582

§ Raw data

STARLINK-21631 47749U 21017AD  26145.25002315  .00344149  00000+0  34927-2 0  99992 47749  53.1533 188.4609 0001328  77.6425 231.1702 15.63582278  5822

JSON: /api/v1/satellites/47749 · /tle

For live sub-satellite position, see the globe view (requires WebGL).

§ Visibility from observer

Set your observer location to see the next 7 days of passes ≥ 10°. The values pass through the URL so the page stays shareable.

No JS? Fill the form by hand. The geolocation button needs JavaScript.